Location: Vancouver
(49.2500°N, 123.1330°W)
Time: 00:32:48
(UTC-07:00)

Transit 2A Rocket - Visible Passes

Search period start: 17 September 2014 00:00
Search period end: 27 September 2014 00:00
Orbit: 593 x 915 km, 66.7° (Epoch: 15 September)

Date Brightness Start Highest point End Pass type
(mag) Time Alt. Az. Time Alt. Az. Time Alt. Az.
17 Sep 6.2 03:24:00 30° ENE 03:24:00 30° ENE 03:26:36 10° NE visible
17 Sep 5.6 05:03:58 26° WNW 05:05:09 30° NW 05:09:08 10° NNE visible
18 Sep 7.2 02:43:32 15° ENE 02:43:32 15° ENE 02:44:32 10° ENE visible
18 Sep 5.1 04:23:30 45° NW 04:23:30 45° NW 04:27:36 10° NNE visible
18 Sep 6.8 06:04:54 10° NW 06:07:05 13° NNW 06:09:20 10° N visible
19 Sep 5.7 03:43:00 40° NNE 03:43:00 40° NNE 03:45:58 10° NNE visible
19 Sep 6.5 05:22:58 13° WNW 05:24:56 17° NNW 05:27:58 10° NNE visible
20 Sep 6.8 03:02:29 23° NE 03:02:29 23° NE 03:04:14 10° NE visible
20 Sep 6.1 04:42:27 23° NW 04:42:52 23° NW 04:46:31 10° NNE visible
21 Sep 7.5 02:21:56 12° NE 02:21:56 12° NE 02:22:22 10° NE visible
21 Sep 6.0 04:01:54 30° NNW 04:01:54 30° NNW 04:05:01 10° NNE visible
21 Sep 7.0 05:43:27 10° NW 05:45:00 12° NNW 05:46:35 10° N visible
22 Sep 6.6 03:21:20 25° NNE 03:21:20 25° NNE 03:23:27 10° NNE visible
22 Sep 6.8 05:01:18 12° NW 05:02:47 14° NNW 05:05:17 10° N visible
23 Sep 7.3 02:40:45 17° NE 02:40:45 17° NE 02:41:48 10° NE visible
23 Sep 6.6 04:20:43 19° NNW 04:20:43 19° NNW 04:23:53 10° NNE visible
24 Sep 6.7 03:40:07 21° N 03:40:07 21° N 03:42:25 10° NNE visible
24 Sep 7.2 05:22:16 10° NNW 05:22:57 10° NNW 05:23:39 10° N visible
25 Sep 7.2 02:59:31 18° NNE 02:59:31 18° NNE 03:00:53 10° NNE visible
25 Sep 7.0 04:39:28 11° NW 04:40:41 12° NNW 04:42:34 10° N visible
26 Sep 7.7 02:18:54 12° NNE 02:18:54 12° NNE 02:19:18 10° NNE visible
26 Sep 7.0 03:58:51 15° NNW 03:58:51 15° NNW 04:01:13 10° N visible
